Location: Campolattaro
(41.2833°N, 14.7333°E)
Time: 10:22:42
(UTC+00:00)

Landsat 5 - Pass Details

Date: 19 May 2025
Orbit: 510 x 610 km, 98.1° (Epoch: 23 June)

Event Time Altitude Azimuth Distance (km) Brightness Sun altitude
Rises 21:55:24 0° 14° (NNE) 2,824 7.8 -27.1°
Reaches altitude 10° 21:57:34 10° 16° (NNE) 1,932 6.8 -27.2°
Enters shadow 22:00:32 45° 26° (NNE) 822 4.4 -27.3°
